[[{"header":{"parameterUnit":"m.s-1","parameterCategory":1,"la1":30.2991,"la2":30.254,"lo1":-89.0895,"lo2":-89.0444,"dy":0.0017,"dx":0.0017,"nx":28,"ny":28,"refTime":"2025-08-18T09:00:00:Z","depth":0,"parameterNumber":2,"parameterNumberName":"U-component_of_WINDS"},"data":[0,0,0,0,0,0,0,0,0,0,0,0,0,0,0,0,0,0,0,0,0,0,0,0,0,0,0,0,0,0,0,0,0,0,0,0,0,0,0,0,0,0,0,0,0,0,0,0,0,0,0,0,0,0,0,0,0,0,-0.024,-0.0239,0,-0.0137,-0.0136,-0.0134,-0.01,-0.01,-0.0101,-0.0101,0.0006,0.0009,0.0012,0,0,0,0,0,0,0,0,0,0,0,0,0,-0.0409,-0.0406,-0.024,-0.0239,-0.0238,-0.0137,-0.0136,-0.0134,-0.01,-0.01,-0.0101,-0.0101,0.0004,0.0008,0.0012,0,0,0,0,0,0,0,0,0,0,0,0,0,-0.0323,-0.0405,-0.0241,-0.0208,-0.0204,-0.0137,-0.0136,-0.0134,-0.01,-0.01,-0.0101,-0.0101,0.0003,0.0008,0.0013,0.0056,0,0,0.0028,0.003,0,0,0,0,0,0,0,0,-0.0328,-0.0317,-0.0214,-0.021,-0.0206,-0.0132,-0.0156,-0.007,-0.0099,-0.0139,-0.0101,-0.0102,-0.004,-0.0031,-0.001,0.0061,0.0065,0.0028,0.0031,0.0033,0.0034,0,0,0,0,0,0,0,-0.0334,-0.0321,-0.0199,-0.0213,-0.0208,-0.0199,-0.0188,-0.0139,-0.0087,-0.0136,-0.0133,-0.0121,-0.0037,-0.0015,-0.0008,0.0067,0.0028,0.0032,0.0035,0.0037,0.0176,0.0177,0,0,0,0,0,0,-0.0345,-0.0327,-0.0203,-0.0196,-0.027,-0.0196,-0.0183,-0.0155,-0.0088,-0.0078,-0.0121,-0.012,-0.0023,-0.0013,-0.0004,0.005,0.0033,0.0038,0.004,0.0175,0.0176,0.0177,0,0,0,0,0,0,-0.0349,-0.0335,-0.0207,-0.0261,-0.0244,-0.0192,-0.0161,-0.0153,-0.013,-0.0076,-0.0067,-0.0108,-0.0023,-0.0011,0.004,0.0054,0.004,0.0044,0.0174,0.0176,0.0177,0.0158,0,0,0,0,0,0,-0.0354,-0.0336,-0.0319,-0.0261,-0.0241,-0.0164,-0.016,-0.015,-0.0122,-0.012,-0.0061,-0.0052,-0.0023,0.0033,0.0045,0.006,0.0048,0.0173,0.0175,0.0176,0.0157,0.0158,0.0159,0,0,0,0,0,-0.036,-0.0328,-0.0319,-0.0304,-0.0219,-0.0164,-0.0152,-0.0119,-0.0121,-0.0104,-0.0069,-0.0054,0.005,0.0038,0.0052,0.0069,0.0173,0.0175,0.0176,0.0157,0.0158,0.0159,0,0,0,0,0,0,-0.0386,-0.032,-0.0308,-0.0256,-0.0216,-0.0158,-0.0135,-0.0119,-0.0077,-0.0077,-0.0038,-0.0025,0.0023,0.0051,0.0035,0.0113,0.0112,0.0117,0.0093,0.0094,0.0095,0.0087,0.0052,0,0,0,0,0,-0.0386,-0.0347,-0.0291,-0.025,-0.0231,-0.0187,-0.0161,-0.014,-0.0096,-0.0079,-0.004,0.0001,0.0043,0.007,0.0112,0.0161,0.0174,0.018,0.0181,0.0181,0.0184,0.0211,0.0214,0.0183,0.0183,0.0183,0,0,-0.0384,-0.0343,-0.0321,-0.0255,-0.0221,-0.0182,-0.0172,-0.0131,-0.0102,-0.0072,-0.0022,0.0007,0.0056,0.0105,0.0129,0.0131,0.0196,0.0183,0.0183,0.0187,0.0213,0.0216,0.0219,0.0184,0.0184,0.0184,0,0,-0.0362,-0.0327,-0.029,-0.0257,-0.0206,-0.0177,-0.0168,-0.0113,-0.0092,-0.0042,-0.002,0.0016,0.0088,0.0121,0.0148,0.018,0.0195,0.0193,0.0197,0.0222,0.0225,0.0227,0.0238,0.0241,0.0196,0.0196,0.0196,0,-0.0367,-0.0307,-0.0273,-0.0233,-0.0205,-0.0177,-0.014,-0.0109,-0.0048,-0.0029,-0.0029,0.0061,0.0096,0.0153,0.0161,0.0182,0.0192,0.0187,0.0221,0.0224,0.0227,0.0237,0.0241,0.0195,0.0196,0.0196,0.0196,0,-0.0316,-0.0275,-0.0251,-0.0193,-0.0162,-0.0124,-0.0084,-0.0057,-0.0039,-0.001,0.004,0.0083,0.0133,0.0148,0.0167,0.0208,0.0207,0.0214,0.0214,0.0228,0.0239,0.0244,0.0194,0.0195,0.0195,0.0195,0,0,-0.0306,-0.0231,-0.0223,-0.0196,-0.0139,-0.0107,-0.0068,-0.0019,0.0003,0.0044,0.0077,0.0137,0.0143,0.0173,0.0196,0.0218,0.024,0.0222,0.0224,0.0223,0.0285,0.0279,0.0284,0.025,0.0251,0.0251,0.0281,0,-0.0277,-0.0206,-0.0175,-0.0118,-0.0081,-0.0055,-0.0021,0.0017,0.0045,0.0081,0.0111,0.0152,0.0158,0.0176,0.0199,0.0232,0.0252,0.023,0.028,0.0282,0.0267,0.029,0.0284,0.031,0.0285,0.0286,0.0287,0,-0.0233,-0.0193,-0.0133,-0.0081,-0.0064,-0.0034,0.0012,0.0046,0.009,0.0108,0.014,0.0162,0.0203,0.02,0.0256,0.024,0.0263,0.0282,0.0283,0.0289,0.0285,0.0295,0.0319,0.0323,0.0294,0.0293,0.0293,0,-0.0233,-0.0164,-0.0119,-0.0097,-0.0036,-0.0016,0.0011,0.0054,0.008,0.0121,0.0138,0.0183,0.0207,0.0241,0.0273,0.0268,0.0326,0.0326,0.0342,0.0341,0.0353,0.0352,0.038,0.0368,0.0368,0.0368,0.0368,0,-0.0204,-0.0169,-0.0118,-0.0091,-0.0051,-0.0016,0.0023,0.0051,0.0089,0.0122,0.0147,0.0177,0.0219,0.0254,0.0279,0.0322,0.0333,0.0348,0.0354,0.0346,0.0344,0.0361,0.036,0.0369,0.0369,0.0369,0.0368,0,-0.0197,-0.0162,-0.0112,-0.0058,-0.0044,-0.0017,0.0028,0.0056,0.0084,0.0125,0.0137,0.0181,0.0223,0.0259,0.0315,0.0332,0.0376,0.0384,0.0361,0.0364,0.0378,0.0376,0.0418,0.0425,0.0408,0.0408,0.0408,0,-0.0181,-0.0153,-0.0098,-0.0074,-0.0048,-0.001,0.0017,0.0052,0.0079,0.013,0.0151,0.0195,0.0232,0.0299,0.0336,0.0378,0.0387,0.0399,0.0394,0.0384,0.0386,0.0384,0.0387,0.0399,0.0399,0.0399,0.0399,0,-0.0157,-0.0141,-0.0103,-0.0059,-0.0028,0.0008,0.0045,0.0063,0.0105,0.0134,0.0177,0.0206,0.0263,0.0306,0.0352,0.0379,0.0396,0.04,0.0406,0.0398,0.0383,0.039,0.0361,0.0399,0.0399,0.0399,0.0399,0.0399,-0.0145,-0.012,-0.0077,-0.0036,-0.0005,0.0029,0.0057,0.0088,0.0125,0.0174,0.0192,0.0236,0.0278,0.0341,0.0368,0.0403,0.0405,0.0414,0.0416,0.0417,0.0415,0.0377,0.0411,0.0411,0.0411,0.0411,0.0412,0,-0.012,-0.0092,-0.0054,-0.0004,0.0028,0.0041,0.0082,0.0108,0.0146,0.0184,0.0219,0.0269,0.031,0.035,0.0393,0.0413,0.0422,0.0424,0.0422,0.0428,0.0411,0.0402,0.0416,0.0416,0.0416,0.0416,0.0416,0.0416,-0.0103,-0.006,-0.004,0.0019,0.0047,0.0091,0.0113,0.0144,0.0173,0.0227,0.0262,0.0287,0.0325,0.0371,0.041,0.042,0.0435,0.0434,0.0446,0.043,0.0429,0.0429,0.042,0.0437,0.0437,0.046,0.046,0.046]},{"header":{"parameterUnit":"m.s-1","parameterCategory":1,"la1":30.2991,"la2":30.254,"lo1":-89.0895,"lo2":-89.0444,"dy":0.0017,"dx":0.0017,"nx":28,"ny":28,"refTime":"2025-08-18T09:00:00:Z","depth":0,"parameterNumber":3,"parameterNumberName":"V-component_of_WINDS"},"data":[0,0,0,0,0,0,0,0,0,0,0,0,0,0,0,0,0,0,0,0,0,0,0,0,0,0,0,0,0,0,0,0,0,0,0,0,0,0,0,0,0,0,0,0,0,0,0,0,0,0,0,0,0,0,0,0,0,0,2.7038,2.7038,0,2.7064,2.7064,2.7065,2.708,2.708,2.708,2.708,2.7103,2.7104,2.7104,0,0,0,0,0,0,0,0,0,0,0,0,0,2.6994,2.6995,2.7038,2.7038,2.7038,2.7064,2.7064,2.7065,2.708,2.708,2.708,2.708,2.7103,2.7103,2.7104,0,0,0,0,0,0,0,0,0,0,0,0,0,2.7016,2.6995,2.7038,2.7049,2.705,2.7064,2.7064,2.7065,2.708,2.708,2.708,2.708,2.7103,2.7103,2.7104,2.7107,0,0,2.7107,2.7107,0,0,0,0,0,0,0,0,2.7015,2.7017,2.7047,2.7048,2.705,2.7069,2.7057,2.7079,2.708,2.7068,2.708,2.708,2.7091,2.7093,2.7098,2.7108,2.7109,2.7107,2.7107,2.7108,2.7108,0,0,0,0,0,0,0,2.7013,2.7016,2.7048,2.7047,2.7049,2.7051,2.7054,2.7062,2.7079,2.7069,2.7071,2.7074,2.7092,2.7097,2.7098,2.711,2.7107,2.7108,2.7108,2.7108,2.712,2.712,0,0,0,0,0,0,2.701,2.7015,2.7047,2.7049,2.7032,2.7051,2.7055,2.7062,2.7079,2.7081,2.7074,2.7074,2.7095,2.7097,2.7099,2.7101,2.7108,2.7108,2.7109,2.712,2.712,2.712,0,0,0,0,0,0,2.7009,2.7013,2.7046,2.7032,2.7037,2.7052,2.706,2.7063,2.7068,2.7082,2.7085,2.7076,2.7095,2.7098,2.7105,2.7103,2.7109,2.711,2.712,2.712,2.712,2.7108,0,0,0,0,0,0,2.7008,2.7013,2.7016,2.7032,2.7037,2.7053,2.706,2.7063,2.707,2.7071,2.7085,2.7087,2.7096,2.7103,2.7105,2.7104,2.711,2.7121,2.712,2.712,2.7108,2.7107,2.7106,0,0,0,0,0,2.7007,2.7012,2.7016,2.702,2.7042,2.7053,2.7056,2.7067,2.707,2.7071,2.708,2.7087,2.7102,2.7104,2.7106,2.7105,2.7121,2.712,2.712,2.7109,2.7107,2.7106,0,0,0,0,0,0,2.6994,2.7014,2.7019,2.703,2.704,2.7056,2.7059,2.7065,2.7073,2.7074,2.7086,2.7089,2.7093,2.71,2.7101,2.7107,2.7112,2.7112,2.7103,2.7101,2.71,2.7098,2.7111,0,0,0,0,0,2.6993,2.7002,2.7018,2.7026,2.703,2.7043,2.7049,2.7056,2.7066,2.707,2.7079,2.7087,2.7094,2.7098,2.7105,2.7109,2.711,2.7109,2.7108,2.7107,2.7106,2.7105,2.7104,2.7118,2.7118,2.7118,0,0,2.699,2.7002,2.7007,2.7023,2.7032,2.7039,2.7047,2.7055,2.7059,2.7071,2.7078,2.7084,2.7094,2.7098,2.71,2.7103,2.7102,2.7106,2.7105,2.7105,2.7105,2.7103,2.7102,2.7118,2.7118,2.7118,0,0,2.6988,2.6999,2.7005,2.7013,2.7026,2.7034,2.7035,2.7049,2.7054,2.7061,2.7069,2.7073,2.7085,2.709,2.7095,2.709,2.7096,2.7092,2.7086,2.7085,2.7083,2.7082,2.7078,2.7077,2.7092,2.7092,2.7092,0,2.6983,2.6996,2.7007,2.7014,2.7019,2.703,2.7035,2.7041,2.7055,2.7057,2.7061,2.7073,2.7081,2.7085,2.7084,2.7088,2.7087,2.7091,2.7083,2.7082,2.7081,2.7077,2.7076,2.7091,2.7091,2.7091,2.7091,0,2.6987,2.6995,2.6998,2.7011,2.7016,2.7022,2.7032,2.7036,2.7042,2.7049,2.7053,2.7062,2.7069,2.7071,2.7077,2.7075,2.7076,2.7081,2.7086,2.7079,2.7075,2.7074,2.709,2.709,2.7091,2.7091,0,0,2.698,2.6997,2.6998,2.7002,2.7015,2.702,2.7024,2.7032,2.7034,2.7042,2.7044,2.7052,2.7055,2.706,2.7066,2.7066,2.7058,2.707,2.707,2.7066,2.7053,2.7048,2.7047,2.7062,2.7062,2.7061,2.7051,0,2.6979,2.6989,2.6998,2.7003,2.7009,2.7017,2.702,2.7027,2.7032,2.7036,2.7041,2.7046,2.7052,2.7054,2.7054,2.7059,2.7055,2.706,2.7061,2.7061,2.7058,2.7045,2.7041,2.7032,2.705,2.705,2.705,0,2.698,2.6987,2.6993,2.7002,2.7004,2.7007,2.7013,2.7017,2.7023,2.7027,2.703,2.7036,2.7038,2.7043,2.7044,2.7047,2.7047,2.705,2.7049,2.7049,2.7055,2.7043,2.7029,2.7027,2.7049,2.7049,2.7049,0,2.6972,2.6983,2.6987,2.699,2.7001,2.7003,2.7007,2.7013,2.7016,2.702,2.7021,2.7026,2.7028,2.703,2.7035,2.7039,2.7034,2.704,2.7035,2.7035,2.7034,2.7034,2.7018,2.7036,2.7036,2.7036,2.7036,0,2.6969,2.6972,2.6983,2.6985,2.6987,2.6996,2.6997,2.7002,2.7007,2.7008,2.7015,2.7016,2.7024,2.7025,2.7029,2.7028,2.7029,2.703,2.7031,2.7029,2.7028,2.7029,2.7029,2.7036,2.7036,2.7036,2.7036,0,2.6961,2.6969,2.6973,2.6982,2.6984,2.6985,2.6992,2.6993,2.6998,2.6999,2.7,2.7007,2.7008,2.7014,2.7016,2.7019,2.7015,2.7018,2.7013,2.7013,2.7007,2.7007,2.699,2.6987,2.7009,2.7009,2.7008,0,2.6959,2.6961,2.6969,2.6971,2.6975,2.6978,2.698,2.6987,2.6989,2.6994,2.6993,2.6995,2.6997,2.6997,2.7002,2.7002,2.7004,2.6998,2.7005,2.7001,2.7002,2.7001,2.7,2.6997,2.6997,2.6996,2.6996,0,2.6952,2.6955,2.6959,2.6963,2.6965,2.6969,2.6972,2.6973,2.698,2.6981,2.6982,2.6984,2.6985,2.6985,2.6986,2.6989,2.6992,2.6994,2.6993,2.699,2.6986,2.6986,2.7008,2.6995,2.6995,2.6995,2.6995,2.6995,2.6946,2.6947,2.6952,2.6955,2.6958,2.696,2.696,2.6964,2.6966,2.6968,2.6971,2.6971,2.6973,2.6975,2.6976,2.6975,2.6977,2.6976,2.6975,2.6974,2.6972,2.6987,2.6975,2.6975,2.6975,2.6975,2.6975,0,2.6938,2.6941,2.6944,2.6948,2.6949,2.6953,2.6956,2.6956,2.6956,2.6958,2.6959,2.6958,2.6958,2.6961,2.696,2.6957,2.6959,2.6957,2.6956,2.6956,2.6971,2.6971,2.6955,2.6955,2.6955,2.6955,2.6955,2.6955,2.6935,2.6935,2.6938,2.6939,2.6941,2.6941,2.6942,2.6943,2.6944,2.6943,2.6943,2.6945,2.6946,2.6945,2.6943,2.6944,2.6942,2.6939,2.694,2.6954,2.6956,2.6957,2.6958,2.6939,2.6939,2.6926,2.6925,2.6925]}]]